CAPE
20 0 0 1 0 0 0 0 0 0 0 0 25 141 110 75 81 328 310 430 484 463 304 110 15 0 0 0 0 0 0 0
156 5 0 0 0 0 0 0 0 0 15 58 102 30 79 112 352 338 505 458 388 296 243 66 12 0 0 0 0 0 0 0
20 7 0 0 0 0 0 0 0 45 82 3 53 14 25 136 460 597 556 444 271 253 247 41 12 0 0 0 0 0 0 0
43 25 9 2 0 0 0 0 21 95 140 90 31 34 15 97 259 521 503 440 282 163 210 34 1 0 0 0 0 0 0 0
142 71 16 13 16 0 0 0 0 121 274 392 38 0 14 255 410 318 377 497 356 103 48 1 0 0 0 0 0 0 0 0
132 178 163 51 110 144 99 75 157 232 308 536 366 101 302 611 459 476 283 281 68 26 0 0 0 0 0 0 0 0 0 0
238 262 285 281 182 236 334 321 363 416 558 610 577 227 504 509 387 317 265 14 0 0 0 0 0 0 0 0 0 0 0 0
324 258 333 419 399 357 439 495 515 548 729 786 856 737 631 497 296 267 120 1 0 0 0 0 0 0 0 0 0 0 0 0
385 296 388 430 600 617 547 528 498 539 804 897 870 839 591 497 415 260 31 9 0 0 0 0 0 0 0 0 0 0 0 0
454 286 260 601 723 877 915 843 644 701 689 1091 907 770 683 558 305 309 48 22 0 0 0 0 0 0 0 0 0 0 0 0
339 203 408 343 893 1104 1216 1014 748 915 1040 1267 1010 811 328 187 359 380 155 16 0 0 0 0 0 0 0 0 0 0 0 0
301 284 284 464 574 855 1389 1387 1308 1178 1225 1145 909 701 459 536 660 513 292 0 0 0 0 0 0 0 0 0 0 0 0 0
400 537 468 443 549 942 1768 1848 1665 1311 1343 1183 953 441 277 356 408 350 0 0 0 0 0 0 0 0 0 0 0 0 0 0
265 614 787 837 802 876 1383 1716 1703 1298 1295 1049 926 323 503 361 278 28 0 0 0 0 0 0 0 0 0 0 0 0 0 0
67 593 928 1141 1165 1192 1241 1547 1565 1318 1344 1026 620 277 79 1 0 0 0 0 0 0 0 0 0 0 0 0 0 0 0 0
17 380 988 1275 1487 1427 1437 1468 1068 1052 1061 414 77 1 0 0 0 0 0 0 0 0 0 0 0 0 0 0 0 0 0 0
0 136 983 1189 1286 1257 1147 643 634 506 360 15 27 0 0 0 0 0 0 0 0 0 0 0 0 0 0 0 0 0 0 0
215 351 951 1007 1030 814 576 366 307 177 0 0 0 0 0 0 0 0 0 0 0 0 0 0 0 0 0 0 0 0 0 0
290 584 629 510 410 216 24 7 0 0 0 0 0 0 0 0 0 0 0 0 0 0 0 0 0 0 0 0 0 0 0 0
CIN
-161 -0 -0 -0 -0 -0 -0 -0 -0 -0 -0 -0 -39 -17 -17 -31 -71 -48 -14 -10 -14 -14 -18 -35 -58 -0 -0 -0 -0 -0 -0 -0
-80 -238 -0 -0 -0 -0 -0 -0 -0 -0 -12 -11 -28 -17 -12 -23 -55 -24 -17 -26 -9 -26 -19 -66 -79 -0 -0 -0 -0 -0 -0 -0
-138 -84 -0 -0 -0 -0 -0 -0 -0 -7 -9 -8 -21 -44 -47 -31 -22 -17 -18 -17 -10 -19 -16 -89 -107 -0 -0 -0 -0 -0 -0 -0
-111 -118 -70 -69 -0 -0 -0 -0 -13 -27 -11 -18 -24 -34 -52 -14 -18 -35 -15 -14 -8 -28 -23 -69 -11 -0 -0 -0 -0 -0 -0 -0
-91 -109 -183 -189 -143 -0 -0 -0 -0 -33 -12 -7 -45 -0 -43 -14 -17 -19 -25 -19 -9 -53 -60 -6 -0 -0 -0 -0 -0 -0 -0 -0
-61 -110 -150 -203 -137 -142 -136 -108 -70 -44 -23 -21 -32 -52 -26 -46 -20 -21 -24 -25 -131 -136 -0 -0 -0 -0 -0 -0 -0 -0 -0 -0
-19 -48 -86 -123 -164 -132 -83 -57 -35 -25 -31 -25 -19 -43 -17 -57 -25 -22 -27 -193 -0 -0 -0 -0 -0 -0 -0 -0 -0 -0 -0 -0
-32 -16 -45 -66 -112 -165 -114 -82 -56 -23 -45 -43 -31 -57 -28 -36 -63 -55 -62 -70 -0 -0 -0 -0 -0 -0 -0 -0 -0 -0 -0 -0
-42 -47 -22 -39 -72 -105 -122 -119 -103 -52 -18 -47 -62 -115 -102 -84 -64 -72 -144 -237 -0 -0 -0 -0 -0 -0 -0 -0 -0 -0 -0 -0
-31 -24 -35 -24 -51 -69 -105 -91 -96 -51 -35 -47 -112 -155 -122 -103 -113 -82 -202 -247 -0 -0 -0 -0 -0 -0 -0 -0 -0 -0 -0 -0
-19 -6 -20 -26 -45 -54 -107 -106 -108 -74 -28 -37 -92 -104 -191 -196 -87 -83 -171 -135 -0 -0 -0 -0 -0 -0 -0 -0 -0 -0 -0 -0
-36 -46 -36 -23 -4 -5 -61 -72 -56 -45 -58 -116 -92 -71 -125 -76 -43 -63 -111 -0 -0 -0 -0 -0 -0 -0 -0 -0 -0 -0 -0 -0
-30 -46 -62 -68 -66 -33 -54 -59 -46 -68 -89 -95 -63 -146 -152 -105 -91 -83 -0 -0 -0 -0 -0 -0 -0 -0 -0 -0 -0 -0 -0 -0
-27 -41 -61 -66 -73 -68 -41 -43 -18 -96 -95 -86 -67 -184 -87 -143 -145 -206 -0 -0 -0 -0 -0 -0 -0 -0 -0 -0 -0 -0 -0 -0
-51 -18 -38 -52 -81 -90 -75 -73 -53 -37 -71 -79 -127 -201 -304 -130 -0 -0 -0 -0 -0 -0 -0 -0 -0 -0 -0 -0 -0 -0 -0 -0
-84 -15 -18 -36 -51 -60 -39 -57 -159 -64 -53 -162 -332 -53 -0 -0 -0 -0 -0 -0 -0 -0 -0 -0 -0 -0 -0 -0 -0 -0 -0 -0
-0 -52 -15 -33 -56 -50 -93 -217 -214 -201 -187 -345 -333 -47 -0 -0 -0 -0 -0 -0 -0 -0 -0 -0 -0 -0 -0 -0 -0 -0 -0 -0
-56 -41 -30 -49 -61 -122 -186 -251 -261 -277 -0 -0 -0 -0 -0 -0 -0 -0 -0 -0 -0 -0 -0 -0 -0 -0 -0 -0 -0 -0 -0 -0
-80 -67 -96 -125 -164 -219 -135 -147 -83 -0 -0 -0 -0 -0 -0 -0 -0 -0 -0 -0 -0 -0 -0 -0 -0 -0 -0 -0 -0 -0 -0 -0
Wind_Speed
19 18 17 16 17 15 16 14 16 16 12 11 13 7 8 6 5 5 7 5 6 6 5 6 4 4 4 2 3 1 1 2
19 18 19 16 18 17 18 19 19 14 12 6 4 4 4 3 4 7 7 5 6 6 4 6 5 5 6 5 3 5 2 2
17 19 18 18 17 18 17 17 15 10 7 7 5 6 5 7 4 6 5 7 8 7 6 5 6 4 5 5 4 3 4 4
19 20 18 18 21 20 18 18 17 14 15 10 7 7 7 7 9 8 9 7 8 7 7 5 6 4 5 5 4 4 4 3
22 21 21 20 20 21 21 19 17 14 14 10 12 9 9 6 5 6 8 9 8 6 7 6 5 4 6 5 5 4 1 2
24 24 24 24 19 20 20 21 20 18 15 13 8 9 7 4 4 5 6 6 7 5 5 6 5 4 4 8 6 5 3 2
19 23 24 23 22 19 18 18 18 18 19 17 10 7 7 8 6 3 3 4 4 5 5 5 4 4 4 3 4 6 3 1
16 20 22 22 24 23 20 22 19 16 20 16 12 10 6 6 8 8 5 4 4 6 7 6 4 3 3 4 5 5 5 2
17 17 19 21 23 24 22 22 20 17 14 19 16 15 11 8 8 6 7 7 7 9 9 6 6 6 5 6 4 4 4 4
22 21 19 19 20 22 23 21 20 17 17 16 15 15 13 10 9 9 8 7 4 6 6 6 5 5 8 6 5 5 4 4
12 12 13 17 21 23 23 23 21 19 14 13 11 10 6 5 7 8 9 6 9 8 7 7 7 7 7 7 5 5 5 3
4 5 3 8 17 14 21 20 19 16 17 13 12 8 7 7 7 7 8 10 9 9 9 10 10 9 7 5 5 6 6 5
5 4 2 4 3 3 18 19 16 13 13 15 14 11 9 7 6 5 9 9 9 9 10 10 10 9 7 7 5 3 5 7
6 4 4 3 1 1 5 9 10 15 16 14 11 10 9 9 6 6 8 7 7 7 7 8 8 6 7 7 6 7 6 6
5 9 7 5 5 4 3 6 3 9 13 12 11 7 9 8 7 6 6 6 6 6 6 6 6 9 8 8 9 7 6 3
5 4 9 8 6 6 7 8 7 9 8 13 11 10 10 9 8 7 6 6 5 6 7 7 8 8 7 10 8 7 4 5
5 7 12 10 9 7 8 10 6 6 10 12 11 9 9 6 6 5 6 8 8 8 8 9 9 6 15 11 6 4 5 5
4 5 10 11 9 11 9 8 7 6 10 10 9 9 9 8 9 9 8 7 7 7 7 7 6 6 8 7 6 3 3 2
6 6 8 10 11 10 10 10 9 10 9 9 9 10 10 8 8 8 7 6 6 7 6 6 6 4 11 8 5 2 4 7
Wind_Direction
153 155 154 166 151 166 154 156 160 168 173 191 203 172 188 200 230 148 197 211 184 173 237 129 143 190 167 186 154 50 133 163
156 153 160 174 161 171 168 176 188 195 204 195 191 189 198 214 144 243 173 203 168 179 227 144 179 206 175 179 147 143 239 124
161 159 169 166 164 173 180 182 184 190 193 198 197 187 196 206 194 194 203 199 191 186 224 177 178 217 163 158 155 179 215 157
171 169 171 166 171 182 189 185 192 195 197 205 192 187 197 192 198 198 202 193 216 188 201 172 175 222 156 164 179 225 199 174
170 175 175 185 180 184 194 201 203 197 206 220 190 202 197 184 189 175 195 181 195 207 185 184 185 181 163 172 181 206 206 228
177 179 182 184 190 187 193 200 205 190 198 217 209 198 184 181 178 183 172 169 154 241 152 176 181 192 194 168 175 175 159 169
188 179 180 184 189 193 193 204 209 190 194 212 207 190 197 176 179 214 182 163 162 192 213 191 197 209 177 191 147 141 187 119
192 184 184 185 187 189 192 198 208 209 185 197 197 192 222 191 168 184 205 173 174 185 201 204 186 165 182 191 166 169 160 180
195 200 185 188 185 185 190 195 200 205 180 188 191 190 201 197 186 173 186 181 182 191 205 159 157 164 202 202 144 136 174 212
196 198 192 181 183 183 186 189 199 202 198 185 189 204 197 194 196 189 187 181 162 127 148 156 163 198 222 144 142 155 190 196
209 196 209 187 181 181 183 190 194 193 190 184 187 207 184 193 198 181 183 153 144 156 172 173 182 198 164 155 161 159 186 181
359 346 328 197 195 194 179 184 186 192 186 166 185 194 191 192 202 187 190 149 162 168 184 194 193 171 168 159 161 170 172 189
151 158 297 334 316 196 169 182 173 179 169 179 195 179 193 181 186 185 156 163 163 178 186 194 195 160 155 171 170 166 126 108
151 144 149 184 218 316 127 157 173 165 178 184 183 183 171 170 172 150 148 149 158 178 179 162 160 155 158 138 143 115 113 102
197 162 160 169 155 162 147 125 159 142 179 166 164 125 103 99 99 101 113 129 141 142 138 155 150 140 148 124 126 123 133 132
181 182 145 144 132 135 125 86 61 88 139 121 118 115 121 122 128 132 138 139 135 111 115 114 125 127 121 129 142 167 159 211
204 189 146 144 141 162 115 96 102 101 106 114 124 136 126 146 150 164 108 109 112 117 129 126 120 124 148 147 133 160 234 223
172 208 130 133 145 122 129 121 130 125 97 108 121 125 118 102 98 94 99 111 115 114 109 117 116 117 129 129 146 231 290 292
153 122 120 120 126 128 128 144 126 120 123 116 114 112 112 115 119 114 108 113 107 114 123 123 131 165 168 165 178 251 253 251